"startDT [UTC]","vpos","CH4 [ppm]","stdev(CH4) [ppm]","CO2 [ppm]","stdev(CO2) [ppm]","H2O [ppm]","stdev(H2O)","p_LGR [torr]","T_LGR [C]","mt1_LGR [us]","mt2_LGR [us]","T_ECpre [C]","T_EC1 [C]","T_EC2 [C]","p_inlet [hPa]","p_in [hPa]","p_out [hPa]","T_inlet [C]","RH_inlet [%]","dwpt_inlet [C]","T_vent [C]","RH_vent [%]","dwpt_vent [C]","flow_vent [l min-1]","flow_inlet [l min-1]","dwpt_sample [C]","T_room [C]"
2012-10-21 00:00:00,0.0,1.9119,0.0009,396.32,0.49,176.6,39.5,138.11,28.84,24.64,36.37,0.04,-272.75,-272.75,-41,562,-933,23.3,4.7,-19.2,23.5,4.7,-19.0,5.73,2.42,-24.1,28.6
2012-10-21 00:01:00,0.0,1.9119,0.0014,396.36,0.43,180.1,32.2,138.11,28.84,24.65,36.38,0.04,-272.75,-272.75,-41,562,-934,23.4,4.7,-19.2,23.5,4.7,-19.0,5.73,2.43,-24.1,28.5
2012-10-21 00:02:00,0.0,1.9128,0.0014,396.29,0.44,174.7,24.7,138.11,28.84,24.64,36.37,0.04,-272.75,-272.75,-41,562,-934,23.3,4.7,-19.2,23.5,4.7,-19.0,5.73,2.43,-24.1,28.6
2012-10-21 00:03:00,0.0,1.9146,0.0009,396.37,0.39,179.0,38.2,138.11,28.84,24.64,36.38,0.04,-272.75,-272.75,-41,563,-933,23.4,4.7,-19.1,23.5,4.7,-18.9,5.73,2.42,-24.1,28.6
2012-10-21 00:04:00,0.0,1.9143,0.0010,396.36,0.36,171.2,29.8,138.11,28.85,24.64,36.37,0.04,-272.75,-272.75,-41,562,-933,23.4,4.7,-19.1,23.5,4.7,-18.9,5.73,2.40,-24.1,28.6
2012-10-21 00:05:00,0.0,1.9143,0.0009,396.31,0.45,172.9,33.3,138.11,28.85,24.64,36.37,0.04,-272.75,-272.75,-41,562,-934,23.4,4.7,-19.1,23.5,4.7,-18.9,5.73,2.39,-24.1,28.6
2012-10-21 00:06:00,0.0,1.9132,0.0010,396.38,0.42,173.4,33.4,138.11,28.85,24.64,36.37,0.04,-272.75,-272.75,-41,562,-934,23.4,4.7,-19.1,23.6,4.7,-18.9,5.73,2.38,-24.1,28.6
2012-10-21 00:07:00,0.0,1.9117,0.0014,396.29,0.46,167.6,31.6,138.11,28.85,24.65,36.37,0.04,-272.75,-272.75,-41,562,-933,23.4,4.7,-19.1,23.5,4.7,-18.9,5.73,2.38,-24.1,28.6
2012-10-21 00:08:00,0.0,1.9131,0.0011,396.34,0.46,174.6,33.3,138.11,28.85,24.64,36.37,0.04,-272.75,-272.75,-41,562,-933,23.4,4.7,-19.1,23.5,4.7,-18.9,5.73,2.39,-24.1,28.6
2012-10-21 00:09:00,0.0,1.9141,0.0011,396.30,0.42,176.9,32.7,138.11,28.85,24.65,36.38,0.04,-272.75,-272.75,-41,562,-934,23.4,4.7,-19.1,23.5,4.7,-18.9,5.73,2.41,-24.1,28.6
2012-10-21 00:10:00,0.0,1.9135,0.0009,396.44,0.45,173.2,36.8,138.11,28.85,24.65,36.36,0.04,-272.75,-272.74,-41,562,-933,23.4,4.7,-19.1,23.5,4.7,-18.9,5.73,2.42,-24.1,28.6
2012-10-21 00:11:00,0.0,1.9122,0.0011,396.22,0.43,164.1,28.1,138.11,28.85,24.64,36.38,0.04,-272.75,-272.75,-41,562,-933,23.4,4.7,-19.1,23.6,4.7,-18.9,5.73,2.44,-24.1,28.6
2012-10-21 00:12:00,0.0,1.9137,0.0013,396.28,0.38,177.9,31.4,138.11,28.85,24.64,36.37,0.04,-272.75,-272.75,-41,563,-933,23.4,4.7,-19.1,23.5,4.7,-18.9,5.73,2.43,-24.1,28.6
2012-10-21 00:13:00,0.0,1.9144,0.0010,396.30,0.40,179.7,31.3,138.11,28.85,24.64,36.38,0.04,-272.74,-272.75,-41,563,-934,23.4,4.7,-19.1,23.6,4.7,-18.9,5.73,2.41,-24.1,28.6
2012-10-21 00:14:00,0.0,1.9130,0.0014,396.21,0.46,177.0,31.1,138.11,28.85,24.64,36.37,0.04,-272.75,-272.75,-41,563,-933,23.4,4.7,-19.1,23.5,4.7,-18.9,5.73,2.40,-24.1,28.5
2012-10-21 00:15:00,0.0,1.9104,0.0014,396.12,0.49,183.3,33.7,138.11,28.85,24.64,36.37,0.04,-272.75,-272.75,-41,562,-933,23.4,4.7,-19.1,23.6,4.7,-18.9,5.73,2.38,-24.1,28.5
2012-10-21 00:16:00,0.0,1.9099,0.0012,396.10,0.40,178.5,29.1,138.11,28.85,24.64,36.38,0.04,-272.75,-272.75,-41,563,-934,23.4,4.7,-19.1,23.5,4.7,-18.9,5.73,2.38,-24.1,28.5
2012-10-21 00:17:00,0.0,1.9125,0.0014,396.34,0.39,174.8,35.9,138.11,28.85,24.64,36.38,0.04,-272.75,-272.75,-41,563,-934,23.4,4.7,-19.1,23.5,4.7,-18.9,5.73,2.38,-24.1,28.5
2012-10-21 00:18:00,0.0,1.9146,0.0009,396.31,0.39,175.7,33.1,138.11,28.85,24.64,36.37,0.04,-272.75,-272.75,-41,563,-933,23.4,4.7,-19.1,23.5,4.7,-18.9,5.73,2.40,-24.1,28.5
2012-10-21 00:19:00,0.0,1.9152,0.0008,396.30,0.49,177.3,29.8,138.11,28.85,24.64,36.38,0.04,-272.75,-272.75,-41,562,-933,23.4,4.7,-19.1,23.6,4.7,-18.9,5.73,2.41,-24.1,28.6
2012-10-21 00:20:00,0.0,1.9157,0.0009,396.43,0.49,171.1,30.6,138.11,28.85,24.64,36.37,0.04,-272.74,-272.74,-41,563,-934,23.4,4.7,-19.0,23.6,4.8,-18.9,5.73,2.43,-24.1,28.6
2012-10-21 00:21:00,0.0,1.9165,0.0012,396.51,0.41,183.6,33.1,138.11,28.85,24.64,36.36,0.04,-272.75,-272.75,-41,563,-934,23.4,4.7,-19.0,23.5,4.8,-18.8,5.73,2.43,-24.1,28.6
2012-10-21 00:22:00,0.0,1.9184,0.0013,396.48,0.42,176.7,32.6,138.11,28.85,24.64,36.37,0.04,-272.75,-272.75,-41,563,-933,23.4,4.7,-19.0,23.6,4.8,-18.8,5.73,2.42,-24.1,28.6
2012-10-21 00:23:00,0.0,1.9178,0.0012,396.47,0.40,171.1,33.3,138.11,28.85,24.64,36.37,0.04,-272.74,-272.75,-41,563,-933,23.4,4.7,-19.0,23.6,4.8,-18.8,5.73,2.40,-24.1,28.6
2012-10-21 00:24:00,0.0,1.9200,0.0013,396.43,0.45,168.1,39.9,138.11,28.85,24.65,36.38,0.04,-272.74,-272.74,-41,563,-934,23.4,4.7,-19.0,23.5,4.8,-18.8,5.73,2.38,-24.1,28.6
2012-10-21 00:25:00,0.0,1.9176,0.0010,396.47,0.45,181.3,28.5,138.11,28.85,24.64,36.37,0.04,-272.75,-272.75,-41,563,-933,23.4,4.7,-19.0,23.6,4.8,-18.8,5.73,2.38,-24.1,28.6
2012-10-21 00:26:00,0.0,1.9192,0.0011,396.56,0.43,177.6,34.3,138.11,28.85,24.64,36.37,0.04,-272.75,-272.74,-41,563,-933,23.4,4.7,-19.0,23.5,4.8,-18.8,5.73,2.38,-24.0,28.6
2012-10-21 00:27:00,0.0,1.9203,0.0009,396.49,0.42,185.8,32.6,138.11,28.85,24.64,36.38,0.04,-272.74,-272.75,-41,563,-933,23.4,4.7,-19.0,23.6,4.8,-18.8,5.73,2.40,-24.1,28.6
2012-10-21 00:28:00,0.0,1.9194,0.0010,396.50,0.38,183.0,27.4,138.11,28.86,24.64,36.38,0.04,-272.75,-272.75,-41,563,-934,23.4,4.7,-19.0,23.6,4.8,-18.8,5.73,2.42,-24.1,28.6
2012-10-21 00:29:00,0.0,1.9182,0.0015,396.26,0.41,173.4,36.0,138.11,28.86,24.65,36.38,0.04,-272.75,-272.75,-41,563,-933,23.4,4.7,-19.0,23.6,4.8,-18.8,5.73,2.44,-24.0,28.5
2012-10-21 00:30:00,0.0,1.9193,0.0014,396.61,0.53,176.0,29.5,138.11,28.85,24.65,36.37,0.04,-272.74,-272.75,-41,563,-933,23.4,4.7,-19.0,23.6,4.8,-18.8,5.73,2.43,-24.0,28.5
2012-10-21 00:31:00,0.0,1.9119,0.0022,396.13,0.50,179.5,33.9,138.11,28.86,24.64,36.38,0.04,-272.74,-272.75,-41,562,-934,23.4,4.7,-19.0,23.6,4.8,-18.8,5.73,2.42,-24.0,28.5
2012-10-21 00:32:00,0.0,1.9125,0.0011,396.30,0.40,174.9,33.5,138.11,28.86,24.64,36.37,0.04,-272.75,-272.75,-41,563,-933,23.4,4.7,-19.0,23.6,4.8,-18.8,5.73,2.39,-24.0,28.5
2012-10-21 00:33:00,0.0,1.9144,0.0013,396.32,0.35,182.7,28.7,138.11,28.86,24.64,36.37,0.04,-272.75,-272.75,-41,563,-933,23.4,4.7,-19.0,23.6,4.8,-18.8,5.73,2.38,-24.0,28.6
2012-10-21 00:34:00,0.0,1.9130,0.0013,396.23,0.41,175.6,36.9,138.11,28.86,24.64,36.38,0.04,-272.75,-272.75,-41,563,-933,23.4,4.7,-19.1,23.6,4.8,-18.8,5.73,2.37,-24.0,28.5
2012-10-21 00:35:00,0.0,1.9140,0.0009,396.18,0.41,179.9,33.4,138.11,28.86,24.64,36.38,0.04,-272.75,-272.75,-41,563,-934,23.4,4.7,-19.1,23.6,4.7,-18.9,5.73,2.39,-24.0,28.5
2012-10-21 00:36:00,0.0,1.9152,0.0010,396.18,0.40,172.4,34.8,138.11,28.85,24.64,36.38,0.04,-272.75,-272.75,-41,563,-933,23.4,4.7,-19.1,23.6,4.7,-18.9,5.73,2.41,-24.0,28.5
2012-10-21 00:37:00,0.0,1.9150,0.0008,396.21,0.40,186.5,32.4,138.11,28.85,24.64,36.38,0.04,-272.75,-272.74,-41,563,-933,23.4,4.7,-19.1,23.6,4.7,-18.9,5.73,2.43,-24.0,28.6
2012-10-21 00:38:00,0.0,1.9162,0.0009,396.29,0.46,180.0,27.8,138.11,28.86,24.64,36.38,0.04,-272.75,-272.75,-41,563,-934,23.4,4.7,-19.0,23.6,4.7,-18.9,5.73,2.44,-24.0,28.6
2012-10-21 00:39:00,0.0,1.9154,0.0013,396.17,0.35,188.1,32.8,138.11,28.86,24.64,36.38,0.04,-272.75,-272.75,-41,563,-933,23.5,4.7,-19.0,23.6,4.8,-18.8,5.73,2.43,-24.0,28.5
2012-10-21 00:40:00,0.0,1.9153,0.0009,396.36,0.46,181.7,38.0,138.11,28.86,24.64,36.37,0.04,-272.74,-272.75,-41,563,-933,23.5,4.7,-19.0,23.6,4.7,-18.9,5.73,2.41,-24.0,28.6
2012-10-21 00:41:00,0.0,1.9137,0.0011,396.18,0.46,182.7,32.4,138.11,28.86,24.64,36.38,0.04,-272.74,-272.75,-41,563,-933,23.5,4.7,-19.1,23.6,4.7,-18.9,5.73,2.38,-24.0,28.6
2012-10-21 00:42:00,0.0,1.9132,0.0008,396.22,0.51,185.7,32.1,138.11,28.86,24.64,36.37,0.04,-272.75,-272.75,-41,563,-934,23.5,4.7,-19.1,23.6,4.7,-18.9,5.73,2.37,-24.0,28.6
2012-10-21 00:43:00,0.0,1.9128,0.0009,396.28,0.37,174.9,32.4,138.11,28.86,24.65,36.37,0.04,-272.75,-272.75,-41,563,-933,23.5,4.7,-19.0,23.6,4.7,-18.9,5.73,2.39,-24.0,28.6
2012-10-21 00:44:00,0.0,1.9132,0.0009,396.29,0.47,185.5,28.3,138.11,28.86,24.65,36.38,0.04,-272.75,-272.75,-41,563,-933,23.5,4.7,-19.0,23.6,4.7,-18.9,5.73,2.40,-24.0,28.5
2012-10-21 00:45:00,0.0,1.9136,0.0010,396.18,0.41,173.2,34.8,138.11,28.86,24.64,36.37,0.04,-272.75,-272.75,-41,563,-933,23.5,4.7,-19.0,23.6,4.8,-18.8,5.73,2.42,-24.0,28.5
2012-10-21 00:46:00,0.0,1.9140,0.0010,396.30,0.50,180.6,37.1,138.11,28.86,24.64,36.38,0.04,-272.75,-272.75,-41,563,-934,23.5,4.7,-19.0,23.6,4.8,-18.8,5.73,2.44,-24.0,28.5
2012-10-21 00:47:00,0.0,1.9143,0.0008,396.26,0.44,180.8,32.6,138.11,28.86,24.65,36.37,0.04,-272.74,-272.75,-41,563,-933,23.5,4.7,-19.0,23.6,4.8,-18.8,5.73,2.44,-24.0,28.5
2012-10-21 00:48:00,0.0,1.9136,0.0009,396.19,0.51,184.4,30.6,138.11,28.86,24.65,36.38,0.04,-272.75,-272.75,-41,563,-933,23.5,4.7,-19.0,23.6,4.8,-18.8,5.73,2.41,-24.0,28.6
2012-10-21 00:49:00,0.0,1.9145,0.0010,396.40,0.41,178.3,34.7,138.11,28.86,24.64,36.37,0.04,-272.75,-272.75,-41,563,-934,23.5,4.7,-19.0,23.6,4.8,-18.8,5.73,2.38,-24.0,28.6
2012-10-21 00:50:00,0.0,1.9142,0.0009,396.42,0.41,182.9,36.1,138.11,28.86,24.64,36.37,0.04,-272.75,-272.75,-41,563,-934,23.5,4.7,-19.0,23.6,4.8,-18.8,5.73,2.37,-24.0,28.6
2012-10-21 00:51:00,0.0,1.9144,0.0010,396.35,0.45,187.1,37.0,138.11,28.87,24.64,36.37,0.04,-272.74,-272.74,-41,563,-933,23.5,4.7,-19.0,23.6,4.8,-18.8,5.73,2.38,-24.0,28.6
2012-10-21 00:52:00,0.0,1.9148,0.0016,396.59,0.40,174.7,33.9,138.11,28.87,24.64,36.36,0.04,-272.75,-272.75,-41,563,-933,23.5,4.7,-19.0,23.6,4.8,-18.8,5.73,2.40,-24.0,28.6
2012-10-21 00:53:00,0.0,1.9144,0.0010,396.24,0.35,182.8,30.4,138.11,28.87,24.64,36.38,0.04,-272.75,-272.75,-41,563,-934,23.4,4.7,-19.0,23.6,4.8,-18.8,5.73,2.43,-24.0,28.6
2012-10-21 00:54:00,0.0,1.9137,0.0011,396.29,0.38,187.6,33.5,138.11,28.87,24.64,36.38,0.04,-272.74,-272.75,-41,563,-934,23.5,4.8,-18.9,23.6,4.8,-18.7,5.73,2.44,-24.0,28.6
2012-10-21 00:55:00,0.0,1.9150,0.0012,396.30,0.32,189.3,30.8,138.11,28.87,24.64,36.37,0.04,-272.75,-272.75,-41,563,-933,23.4,4.8,-18.9,23.6,4.8,-18.7,5.73,2.43,-24.0,28.6
2012-10-21 00:56:00,0.0,1.9144,0.0012,396.26,0.41,193.7,27.9,138.11,28.87,24.64,36.38,0.04,-272.74,-272.75,-41,563,-933,23.5,4.8,-18.9,23.6,4.8,-18.7,5.73,2.40,-23.9,28.7
2012-10-21 00:57:00,0.0,1.9129,0.0007,396.28,0.41,187.0,34.4,138.11,28.88,24.64,36.38,0.04,-272.74,-272.75,-41,563,-934,23.5,4.8,-18.9,23.6,4.8,-18.7,5.73,2.38,-23.9,28.7
2012-10-21 00:58:00,0.0,1.9129,0.0008,396.31,0.44,192.7,34.2,138.11,28.88,24.64,36.38,0.04,-272.74,-272.75,-41,563,-934,23.5,4.8,-18.8,23.6,4.8,-18.7,5.73,2.37,-23.9,28.7
2012-10-21 00:59:00,0.0,1.9133,0.0011,396.16,0.44,187.2,39.8,138.11,28.88,24.64,36.38,0.04,-272.75,-272.75,-41,563,-933,23.5,4.8,-18.8,23.6,4.8,-18.7,5.73,2.38,-23.9,28.7
2012-10-21 01:00:00,0.0,1.9130,0.0008,396.27,0.37,191.3,37.7,138.11,28.88,24.64,36.37,0.04,-272.75,-272.75,-41,563,-933,23.5,4.8,-18.9,23.6,4.8,-18.6,5.73,2.41,-23.9,28.7
2012-10-21 01:01:00,0.0,1.9124,0.0010,396.27,0.33,192.4,31.4,138.11,28.88,24.64,36.38,0.04,-272.74,-272.75,-41,563,-934,23.5,4.8,-18.8,23.6,4.8,-18.6,5.73,2.44,-23.9,28.7
2012-10-21 01:02:00,0.0,1.9118,0.0014,396.16,0.43,190.2,34.9,138.11,28.88,24.64,36.38,0.04,-272.75,-272.75,-41,563,-934,23.5,4.8,-18.8,23.6,4.8,-18.6,5.73,2.44,-23.9,28.7
2012-10-21 01:03:00,0.0,1.9128,0.0010,396.15,0.42,188.6,26.9,138.11,28.88,24.64,36.37,0.04,-272.75,-272.75,-41,563,-933,23.5,4.8,-18.8,23.7,4.8,-18.6,5.73,2.42,-23.9,28.7
2012-10-21 01:04:00,0.0,1.9118,0.0008,396.06,0.36,196.8,38.7,138.11,28.88,24.65,36.38,0.04,-272.75,-272.74,-41,563,-933,23.5,4.8,-18.8,23.6,4.8,-18.6,5.73,2.39,-23.9,28.7
2012-10-21 01:05:00,0.0,1.9122,0.0009,396.12,0.46,194.9,35.5,138.11,28.88,24.64,36.38,0.04,-272.75,-272.75,-41,563,-934,23.5,4.8,-18.8,23.6,4.8,-18.6,5.73,2.36,-23.9,28.7
2012-10-21 01:06:00,0.0,1.9118,0.0009,396.09,0.40,199.1,34.3,138.11,28.88,24.64,36.38,0.04,-272.75,-272.75,-41,563,-933,23.5,4.8,-18.8,23.6,4.8,-18.7,5.73,2.38,-23.9,28.7
2012-10-21 01:07:00,0.0,1.9108,0.0008,396.26,0.48,186.3,32.1,138.11,28.89,24.65,36.37,0.04,-272.75,-272.74,-41,563,-933,23.5,4.8,-18.8,23.7,4.8,-18.6,5.73,2.41,-23.9,28.7
2012-10-21 01:08:00,0.0,1.9117,0.0009,396.18,0.47,195.4,35.5,138.11,28.89,24.64,36.37,0.04,-272.74,-272.75,-41,563,-933,23.5,4.8,-18.8,23.6,4.8,-18.6,5.73,2.43,-23.9,28.7
2012-10-21 01:09:00,0.0,1.9115,0.0012,396.11,0.45,194.2,34.1,138.11,28.89,24.64,36.37,0.04,-272.75,-272.75,-41,563,-934,23.5,4.8,-18.8,23.7,4.8,-18.6,5.73,2.44,-23.9,28.7
2012-10-21 01:10:00,0.0,1.9113,0.0008,396.11,0.42,198.6,28.9,138.11,28.89,24.64,36.38,0.04,-272.75,-272.75,-41,563,-933,23.5,4.8,-18.8,23.7,4.8,-18.6,5.73,2.42,-23.8,28.8
2012-10-21 01:11:00,0.0,1.9112,0.0010,396.09,0.37,195.7,32.7,138.11,28.89,24.65,36.38,0.04,-272.74,-272.75,-41,563,-933,23.5,4.8,-18.8,23.7,4.8,-18.6,5.73,2.39,-23.9,28.8
2012-10-21 01:12:00,0.0,1.9115,0.0010,396.10,0.46,188.9,33.4,138.11,28.89,24.64,36.38,0.04,-272.74,-272.75,-41,563,-934,23.5,4.8,-18.8,23.7,4.9,-18.5,5.73,2.38,-23.9,28.7
2012-10-21 01:13:00,0.0,1.9115,0.0009,396.16,0.34,191.0,32.0,138.11,28.89,24.64,36.38,0.04,-272.75,-272.75,-41,563,-934,23.5,4.8,-18.8,23.7,4.9,-18.5,5.73,2.37,-23.8,28.7
2012-10-21 01:14:00,0.0,1.9121,0.0010,396.05,0.39,196.2,33.0,138.11,28.90,24.64,36.38,0.04,-272.74,-272.75,-41,563,-933,23.5,4.8,-18.8,23.7,4.8,-18.6,5.73,2.39,-23.9,28.7
2012-10-21 01:15:00,0.0,1.9124,0.0009,396.18,0.43,191.3,36.6,138.11,28.90,24.64,36.38,0.04,-272.75,-272.75,-41,563,-933,23.5,4.8,-18.8,23.7,4.8,-18.6,5.73,2.42,-23.9,28.8
2012-10-21 01:16:00,0.0,1.9124,0.0010,396.11,0.40,192.3,33.6,138.11,28.90,24.64,36.39,0.04,-272.75,-272.75,-41,563,-934,23.5,4.8,-18.8,23.7,4.8,-18.7,5.73,2.43,-23.8,28.7
2012-10-21 01:17:00,0.0,1.9126,0.0009,396.17,0.39,191.6,32.3,138.11,28.90,24.64,36.37,0.04,-272.75,-272.75,-41,563,-934,23.5,4.8,-18.8,23.7,4.8,-18.7,5.73,2.43,-23.8,28.7
2012-10-21 01:18:00,0.0,1.9125,0.0009,396.16,0.46,191.1,32.1,138.11,28.90,24.64,36.38,0.04,-272.74,-272.75,-41,563,-933,23.5,4.8,-18.8,23.7,4.8,-18.6,5.73,2.41,-23.9,28.7
2012-10-21 01:19:00,0.0,1.9123,0.0010,396.20,0.41,184.4,32.8,138.11,28.90,24.64,36.38,0.04,-272.75,-272.75,-41,563,-933,23.5,4.8,-18.8,23.7,4.8,-18.6,5.73,2.37,-23.9,28.8
2012-10-21 01:20:00,0.0,1.9125,0.0011,396.21,0.37,190.1,45.1,138.11,28.91,24.64,36.37,0.04,-272.75,-272.74,-41,563,-934,23.5,4.8,-18.7,23.7,4.9,-18.5,5.73,2.37,-23.8,28.8
2012-10-21 01:21:00,0.0,1.9126,0.0012,396.30,0.44,184.9,29.6,138.11,28.91,24.64,36.37,0.04,-272.74,-272.74,-41,563,-934,23.5,4.8,-18.7,23.7,4.9,-18.5,5.73,2.39,-23.8,28.8
2012-10-21 01:22:00,0.0,1.9127,0.0008,396.13,0.41,190.1,40.2,138.11,28.91,24.64,36.38,0.04,-272.74,-272.75,-41,563,-933,23.5,4.8,-18.7,23.7,4.9,-18.5,5.73,2.42,-23.9,28.7
2012-10-21 01:23:00,0.0,1.9122,0.0009,396.13,0.46,187.2,32.1,138.11,28.91,24.64,36.38,0.04,-272.75,-272.75,-41,563,-933,23.5,4.8,-18.7,23.7,4.9,-18.5,5.73,2.44,-23.8,28.7
2012-10-21 01:24:00,0.0,1.9122,0.0009,396.24,0.34,185.8,30.0,138.11,28.91,24.65,36.37,0.04,-272.74,-272.75,-41,563,-934,23.5,4.8,-18.7,23.7,4.9,-18.5,5.73,2.43,-23.8,28.8
2012-10-21 01:25:00,0.0,1.9126,0.0011,396.16,0.44,193.3,31.1,138.11,28.91,24.64,36.38,0.04,-272.75,-272.75,-41,563,-934,23.5,4.8,-18.7,23.7,4.9,-18.5,5.73,2.41,-23.8,28.7
2012-10-21 01:26:00,0.0,1.9122,0.0010,396.11,0.43,188.3,33.9,138.11,28.91,24.64,36.38,0.04,-272.75,-272.75,-41,563,-933,23.5,4.8,-18.7,23.7,4.9,-18.5,5.73,2.37,-23.9,28.7
2012-10-21 01:27:00,0.0,1.9124,0.0009,396.31,0.45,201.7,29.0,138.11,28.92,24.64,36.37,0.04,-272.74,-272.75,-41,563,-933,23.5,4.8,-18.7,23.7,4.9,-18.5,5.73,2.37,-23.8,28.8
2012-10-21 01:28:00,0.0,1.9123,0.0009,396.21,0.37,195.6,34.3,138.11,28.92,24.64,36.37,0.04,-272.74,-272.75,-41,563,-934,23.5,4.8,-18.7,23.7,4.9,-18.5,5.73,2.39,-23.8,28.7
2012-10-21 01:29:00,0.0,1.9127,0.0009,396.13,0.44,195.4,33.4,138.11,28.92,24.64,36.38,0.04,-272.75,-272.75,-41,563,-934,23.5,4.8,-18.7,23.7,4.9,-18.5,5.73,2.42,-23.8,28.7
2012-10-21 01:30:00,0.0,1.9130,0.0010,396.04,0.35,191.9,35.3,138.11,28.92,24.64,36.39,0.04,-272.75,-272.75,-41,563,-933,23.5,4.8,-18.7,23.7,4.9,-18.5,5.73,2.44,-23.8,28.8
2012-10-21 01:31:00,0.0,1.9131,0.0009,396.27,0.42,189.2,29.8,138.11,28.93,24.64,36.37,0.04,-272.74,-272.74,-41,563,-933,23.5,4.8,-18.7,23.7,4.9,-18.5,5.73,2.43,-23.8,28.8
2012-10-21 01:32:00,0.0,1.9131,0.0009,396.34,0.38,193.5,35.1,138.11,28.93,24.65,36.37,0.04,-272.74,-272.74,-41,563,-934,23.5,4.8,-18.7,23.7,4.9,-18.5,5.73,2.40,-23.8,28.8
2012-10-21 01:33:00,0.0,1.9133,0.0009,396.31,0.41,193.8,37.5,138.11,28.93,24.64,36.37,0.04,-272.75,-272.75,-41,563,-934,23.5,4.8,-18.7,23.7,4.9,-18.5,5.73,2.37,-23.8,28.8
2012-10-21 01:34:00,0.0,1.9137,0.0007,396.41,0.41,192.9,33.4,138.11,28.93,24.64,36.37,0.04,-272.75,-272.74,-41,563,-933,23.5,4.8,-18.7,23.7,4.8,-18.5,5.73,2.37,-23.8,28.7
2012-10-21 01:35:00,0.0,1.9144,0.0009,396.23,0.40,192.9,36.4,138.11,28.93,24.64,36.38,0.04,-272.74,-272.75,-41,563,-933,23.5,4.8,-18.7,23.7,4.9,-18.5,5.73,2.39,-23.8,28.7
2012-10-21 01:36:00,0.0,1.9129,0.0012,396.21,0.37,195.5,33.2,138.11,28.93,24.64,36.38,0.04,-272.75,-272.75,-41,563,-933,23.5,4.8,-18.7,23.7,4.9,-18.5,5.73,2.43,-23.8,28.8
2012-10-21 01:37:00,0.0,1.9121,0.0011,396.29,0.34,205.5,29.5,138.11,28.93,24.64,36.37,0.04,-272.75,-272.75,-41,563,-934,23.5,4.8,-18.7,23.7,4.9,-18.5,5.73,2.45,-23.8,28.8
2012-10-21 01:38:00,0.0,1.9120,0.0011,396.20,0.34,197.4,33.9,138.11,28.93,24.64,36.38,0.04,-272.74,-272.74,-41,563,-934,23.5,4.8,-18.6,23.7,4.9,-18.5,5.73,2.42,-23.8,28.8
2012-10-21 01:39:00,0.0,1.9162,0.0013,396.21,0.45,186.5,35.2,138.11,28.93,24.64,36.38,0.04,-272.75,-272.75,-41,563,-933,23.5,4.8,-18.6,23.7,4.9,-18.4,5.73,2.40,-23.8,28.7
2012-10-21 01:40:00,0.0,1.9152,0.0020,396.32,0.39,183.4,28.0,138.11,28.94,24.64,36.38,0.04,-272.75,-272.75,-41,563,-933,23.6,4.8,-18.6,23.8,4.9,-18.4,5.73,2.37,-23.8,28.7
2012-10-21 01:41:00,0.0,1.9143,0.0010,396.27,0.40,195.6,31.6,138.11,28.94,24.65,36.38,0.04,-272.74,-272.75,-41,563,-934,23.6,4.8,-18.7,23.7,4.9,-18.4,5.73,2.37,-23.8,28.7
2012-10-21 01:42:00,0.0,1.9139,0.0010,396.34,0.42,193.5,36.4,138.11,28.94,24.64,36.37,0.04,-272.75,-272.75,-41,563,-934,23.6,4.8,-18.7,23.7,4.8,-18.5,5.73,2.39,-23.8,28.7
2012-10-21 01:43:00,0.0,1.9148,0.0009,396.39,0.39,188.4,29.0,138.11,28.94,24.64,36.37,0.04,-272.75,-272.75,-41,563,-933,23.6,4.8,-18.7,23.7,4.9,-18.5,5.73,2.42,-23.8,28.7
2012-10-21 01:44:00,0.0,1.9140,0.0013,396.31,0.43,201.6,35.9,138.11,28.94,24.64,36.37,0.04,-272.75,-272.75,-41,563,-933,23.6,4.8,-18.7,23.7,4.9,-18.5,5.73,2.43,-23.8,28.8
2012-10-21 01:45:00,0.0,1.9122,0.0011,396.10,0.42,197.0,37.0,138.11,28.95,24.64,36.38,0.04,-272.75,-272.75,-41,564,-934,23.6,4.9,-18.6,23.7,4.9,-18.5,5.73,2.43,-23.8,28.8
2012-10-21 01:46:00,0.0,1.9127,0.0011,396.17,0.45,194.7,32.6,138.11,28.95,24.64,36.37,0.04,-272.75,-272.75,-41,564,-934,23.6,4.8,-18.7,23.7,4.9,-18.4,5.73,2.41,-23.8,28.8
2012-10-21 01:47:00,0.0,1.9130,0.0010,396.28,0.39,198.9,35.9,138.11,28.95,24.64,36.37,0.04,-272.75,-272.75,-41,563,-933,23.6,4.8,-18.6,23.7,4.9,-18.5,5.73,2.38,-23.8,28.8
2012-10-21 01:48:00,0.0,1.9140,0.0012,396.34,0.46,197.5,31.6,138.11,28.95,24.64,36.37,0.04,-272.74,-272.74,-41,563,-933,23.6,4.8,-18.7,23.7,4.9,-18.5,5.73,2.37,-23.8,28.8
2012-10-21 01:49:00,0.0,1.9141,0.0013,396.28,0.40,196.3,33.0,138.11,28.95,24.64,36.37,0.04,-272.75,-272.75,-41,564,-934,23.6,4.8,-18.7,23.7,4.9,-18.5,5.73,2.38,-23.8,28.8
2012-10-21 01:50:00,0.0,1.9135,0.0010,396.39,0.41,182.9,27.3,138.11,28.95,24.64,36.37,0.04,-272.75,-272.75,-41,563,-934,23.6,4.8,-18.7,23.7,4.9,-18.5,5.73,2.41,-23.8,28.8
2012-10-21 01:51:00,0.0,1.9136,0.0009,396.43,0.41,197.6,32.5,138.11,28.95,24.64,36.36,0.04,-272.75,-272.75,-41,563,-933,23.6,4.8,-18.8,23.7,4.8,-18.5,5.73,2.43,-23.8,28.8
2012-10-21 01:52:00,0.0,1.9133,0.0008,396.37,0.43,197.3,33.3,138.11,28.95,24.65,36.38,0.04,-272.75,-272.75,-41,564,-933,23.6,4.8,-18.8,23.7,4.8,-18.6,5.73,2.44,-23.8,28.7
2012-10-21 01:53:00,0.0,1.9139,0.0008,396.33,0.33,192.8,34.1,138.11,28.95,24.64,36.37,0.04,-272.75,-272.75,-41,563,-934,23.6,4.7,-18.9,23.7,4.8,-18.7,5.73,2.42,-23.8,28.8
2012-10-21 01:54:00,0.0,1.9142,0.0012,396.42,0.44,199.7,33.9,138.11,28.96,24.64,36.37,0.04,-272.75,-272.75,-41,564,-934,23.6,4.7,-19.0,23.8,4.7,-18.8,5.73,2.39,-23.8,28.8
2012-10-21 01:55:00,0.0,1.9128,0.0010,396.19,0.43,186.0,35.5,138.11,28.96,24.64,36.38,0.04,-272.75,-272.75,-41,564,-934,23.6,4.7,-19.0,23.7,4.7,-18.8,5.73,2.37,-23.8,28.8
2012-10-21 01:56:00,0.0,1.9125,0.0010,396.16,0.37,201.6,33.3,138.11,28.96,24.64,36.38,0.04,-272.75,-272.75,-41,564,-933,23.6,4.7,-19.1,23.8,4.7,-18.9,5.73,2.38,-23.8,28.8
2012-10-21 01:57:00,0.0,1.9121,0.0010,395.93,0.43,199.2,29.2,138.11,28.96,24.64,36.38,0.04,-272.75,-272.75,-41,564,-933,23.6,4.7,-19.1,23.8,4.7,-18.9,5.73,2.40,-23.8,28.8
2012-10-21 01:58:00,0.0,1.9120,0.0008,395.91,0.43,196.3,39.2,138.11,28.96,24.64,36.38,0.04,-272.74,-272.74,-41,564,-934,23.6,4.7,-19.0,23.8,4.7,-18.9,5.73,2.43,-23.8,28.8
2012-10-21 01:59:00,0.0,1.9121,0.0007,396.10,0.43,200.9,29.5,138.11,28.97,24.64,36.37,0.04,-272.75,-272.75,-41,563,-934,23.6,4.7,-19.0,23.8,4.7,-18.9,5.73,2.44,-23.8,28.8
2012-10-21 02:00:00,0.0,1.9120,0.0010,396.02,0.45,201.0,32.2,138.11,28.97,24.64,36.38,0.04,-272.75,-272.75,-41,564,-933,23.6,4.7,-19.1,23.8,4.7,-18.9,5.73,2.42,-23.8,28.8
2012-10-21 02:01:00,0.0,1.9125,0.0009,396.17,0.36,197.1,36.9,138.11,28.97,24.64,36.37,0.04,-272.74,-272.75,-41,564,-933,23.6,4.7,-19.1,23.8,4.7,-18.9,5.73,2.38,-23.8,28.8
2012-10-21 02:02:00,0.0,1.9124,0.0010,396.13,0.38,198.6,31.5,138.11,28.97,24.65,36.37,0.04,-272.74,-272.75,-41,564,-934,23.6,4.6,-19.1,23.8,4.7,-18.9,5.73,2.36,-23.8,28.8
2012-10-21 02:03:00,0.0,1.9125,0.0011,396.06,0.47,194.4,32.8,138.11,28.97,24.64,36.38,0.04,-272.74,-272.75,-41,564,-933,23.6,4.6,-19.2,23.8,4.7,-19.0,5.73,2.38,-23.8,28.8
2012-10-21 02:04:00,0.0,1.9125,0.0010,396.16,0.38,200.6,33.8,138.11,28.97,24.65,36.37,0.04,-272.75,-272.75,-41,564,-933,23.6,4.6,-19.2,23.8,4.7,-18.9,5.73,2.41,-23.8,28.8
2012-10-21 02:05:00,0.0,1.9128,0.0008,396.14,0.47,195.5,41.5,138.11,28.98,24.64,36.38,0.04,-272.75,-272.75,-41,564,-934,23.6,4.6,-19.2,23.8,4.7,-18.9,5.73,2.43,-23.8,28.8
2012-10-21 02:06:00,0.0,1.9127,0.0008,396.08,0.46,201.5,30.4,138.11,28.98,24.64,36.38,0.04,-272.75,-272.75,-41,564,-934,23.6,4.6,-19.2,23.7,4.7,-19.0,5.73,2.44,-23.8,28.8
2012-10-21 02:07:00,0.0,1.9126,0.0010,396.09,0.39,196.8,35.9,138.11,28.98,24.64,36.38,0.04,-272.75,-272.75,-41,564,-933,23.6,4.6,-19.2,23.8,4.6,-19.0,5.73,2.41,-23.8,28.8
2012-10-21 02:08:00,0.0,1.9122,0.0010,396.14,0.38,197.4,33.1,138.11,28.98,24.65,36.37,0.04,-272.75,-272.75,-41,564,-933,23.6,4.6,-19.3,23.8,4.6,-19.0,5.73,2.38,-23.8,28.8
2012-10-21 02:09:00,0.0,1.9128,0.0011,396.07,0.42,206.1,33.3,138.11,28.99,24.64,36.38,0.04,-272.75,-272.75,-41,564,-934,23.6,4.5,-19.4,23.8,4.6,-19.1,5.73,2.36,-23.8,28.8
2012-10-21 02:10:00,0.0,1.9127,0.0009,396.05,0.41,196.6,36.3,138.11,28.99,24.64,36.37,0.04,-272.75,-272.75,-41,564,-933,23.6,4.5,-19.5,23.8,4.6,-19.2,5.73,2.38,-23.8,28.9
2012-10-21 02:11:00,0.0,1.9135,0.0008,396.05,0.38,198.0,29.5,138.11,28.99,24.64,36.38,0.04,-272.75,-272.75,-41,564,-933,23.6,4.5,-19.5,23.7,4.5,-19.3,5.73,2.42,-23.8,28.8
2012-10-21 02:12:00,0.0,1.9128,0.0010,395.95,0.42,193.4,34.1,138.11,28.99,24.64,36.38,0.04,-272.74,-272.75,-41,564,-933,23.6,4.5,-19.6,23.8,4.5,-19.4,5.73,2.44,-23.8,28.8
2012-10-21 02:13:00,0.0,1.9129,0.0011,395.95,0.38,200.7,31.8,138.11,28.99,24.64,36.38,0.04,-272.75,-272.75,-41,564,-933,23.6,4.5,-19.6,23.8,4.5,-19.4,5.73,2.43,-23.8,28.8
2012-10-21 02:14:00,0.0,1.9132,0.0010,396.17,0.44,196.2,34.6,138.11,29.00,24.64,36.38,0.04,-272.74,-272.75,-41,564,-933,23.6,4.4,-19.7,23.8,4.5,-19.4,5.73,2.40,-23.8,28.8
2012-10-21 02:15:00,0.0,1.9133,0.0009,396.08,0.35,206.2,34.7,138.11,29.00,24.64,36.37,0.04,-272.74,-272.75,-41,564,-933,23.6,4.4,-19.7,23.8,4.4,-19.5,5.73,2.36,-23.7,28.8
2012-10-21 02:16:00,0.0,1.9129,0.0009,396.10,0.40,201.7,33.4,138.11,29.00,24.64,36.38,0.04,-272.75,-272.75,-41,564,-933,23.6,4.4,-19.8,23.8,4.4,-19.6,5.73,2.36,-23.7,28.8